KF0ZH Weather Reports


Display with metric or nautical units.
time (UTC)temp
F
wind
direction
speed
MPH
gust
MPH
rain 1hr
in
rain 24hr
in
rain mn
in
humidity
%
barometer
mb
20260902204459 84 12 0.0 5.0 0.00 0.00 0.00 65 1008.8
20260902203958 84 70 0.0 5.0 0.00 0.00 0.00 64 1008.8
20260902203458 83 73 5.0 8.0 0.00 0.00 0.00 64 1008.7
20260902203002 83 15 0.0 7.0 0.00 0.00 0.00 65 1008.7
20260902202505 84 18 0.0 8.0 0.00 0.00 0.00 66 1008.8
20260902201958 84 122 6.0 9.0 0.00 0.00 0.00 65 1008.8
20260902201457 83 37 0.0 7.0 0.00 0.00 0.00 65 1008.9
20260902200957 83 80 4.0 7.0 0.00 0.00 0.00 65 1009.0
20260902200458 84 26 0.0 11.0 0.00 0.00 0.00 65 1009.0
20260902195958 84 23 0.0 6.0 0.00 0.00 0.00 64 1009.1
20260902195457 83 71 0.0 4.0 0.00 0.00 0.00 64 1009.3
20260902194957 83 63 0.0 7.0 0.00 0.00 0.00 65 1009.4
20260902194500 83 19 2.0 9.0 0.00 0.00 0.00 66 1009.3
20260902193958 83 274 1.0 7.0 0.00 0.00 0.00 66 1009.4
20260902193500 83 2 8.0 8.0 0.00 0.00 0.00 67 1009.5
20260902192957 82 326 0.0 6.0 0.00 0.00 0.00 67 1009.5
20260902192501 82 22 0.0 6.0 0.00 0.00 0.00 67 1009.6
20260902191958 82 329 1.0 8.0 0.00 0.00 0.00 66 1009.6
20260902191457 83 313 0.0 6.0 0.00 0.00 0.00 67 1009.6
20260902191003 83 22 0.0 6.0 0.00 0.00 0.00 67 1009.7
20260902190458 83 319 0.0 6.0 0.00 0.00 0.00 67 1009.7
20260902185959 83 274 0.0 5.0 0.00 0.00 0.00 66 1009.7
20260902185457 83 164 0.0 7.0 0.00 0.00 0.00 66 1009.8
20260902184957 82 195 0.0 5.0 0.00 0.00 0.00 67 1009.8
20260902184457 82 23 0.0 7.0 0.00 0.00 0.00 67 1009.8
20260902183957 82 151 0.0 4.0 0.00 0.00 0.00 67 1009.8
20260902183458 82 170 2.0 6.0 0.00 0.00 0.00 66 1009.8
20260902182958 81 161 0.0 6.0 0.00 0.00 0.00 68 1009.9
20260902182457 81 49 0.0 6.0 0.00 0.00 0.00 71 1009.9
20260902181957 80 42 4.0 7.0 0.00 0.00 0.00 70 1009.9
20260902181457 80 59 4.0 8.0 0.00 0.00 0.00 70 1009.9
20260902181003 80 7 0.0 5.0 0.00 0.00 0.00 73 1009.9
20260902174957 80 22 0.0 5.0 0.00 0.00 0.00 73 1010.1
20260902174457 80 21 5.0 8.0 0.00 0.00 0.00 72 1010.3
20260902173959 80 119 0.0 7.0 0.00 0.00 0.00 72 1010.2
20260902173457 80 358 0.0 7.0 0.00 0.00 0.00 74 1010.3
20260902172957 80 35 0.0 0.0 0.00 0.00 0.00 73 1010.4
20260902172457 79 35 0.0 5.0 0.00 0.00 0.00 73 1010.6
20260902171957 80 146 0.0 4.0 0.00 0.00 0.00 71 1010.7
20260902171457 80 126 0.0 5.0 0.00 0.00 0.00 73 1010.8
20260902165959 79 150 2.0 5.0 0.00 0.00 0.00 73 1011.5
20260902165457 79 208 0.0 6.0 0.00 0.00 0.00 73 1011.6
20260902164959 78 215 5.0 6.0 0.00 0.00 0.00 73 1011.5
20260902164501 78 210 2.0 4.0 0.00 0.00 0.00 74 1011.5
20260902163958 77 39 0.0 2.0 0.00 0.00 0.00 77 1011.4
20260902163458 77 39 0.0 4.0 0.00 0.00 0.00 78 1011.0
20260902163006 77 23 4.0 6.0 0.00 0.00 0.00 78 1011.0
20260902161957 77 78 0.0 5.0 0.00 0.00 0.00 78 1011.2
20260902160957 77 12 0.0 2.0 0.00 0.00 0.00 77 1011.1
20260902160457 77 126 0.0 3.0 0.00 0.00 0.00 77 1011.1
20260902155958 77 67 0.0 3.0 0.00 0.00 0.00 78 1010.9
20260902152957 74 26 0.0 5.0 0.00 0.00 0.00 82 1010.8
20260902152740 74 354 5.0 5.0 0.00 0.00 0.00 82 1010.8
20260902152457 74 354 5.0 5.0 0.00 0.00 0.00 82 1010.8
20260902152001 74 189 0.0 5.0 0.00 0.00 0.00 83 1010.8
20260902151457 73 99 0.0 6.0 0.00 0.00 0.00 84 1010.6
20260902150957 73 35 0.0 5.0 0.00 0.00 0.00 84 1010.6
20260902150457 73 99 3.0 5.0 0.00 0.00 0.00 85 1010.7
20260902145958 72 68 0.0 2.0 0.00 0.00 0.00 87 1010.7
20260902145531 72 68 2.0 7.0 0.00 0.00 0.00 87 1010.7
20260902145457 72 68 2.0 7.0 0.00 0.00 0.00 87 1010.7
20260902145038 72 351 2.0 6.0 0.00 0.00 0.00 87 1010.6
20260902144957 72 39 5.0 7.0 0.00 0.00 0.00 87 1010.7
20260902144457 72 351 2.0 6.0 0.00 0.00 0.00 87 1010.6
20260902143528 71 1 4.0 6.0 0.00 0.00 0.00 89 1010.7
20260902143457 71 1 4.0 6.0 0.00 0.00 0.00 89 1010.7
20260902142958 71 67 6.0 8.0 0.00 0.00 0.00 87 1010.8
20260902142458 71 57 0.0 6.0 0.00 0.00 0.00 88 1010.8
20260902141001 70 57 0.0 6.0 0.00 0.00 0.00 91 1011.1
20260902135457 69 73 0.0 4.0 0.00 0.00 0.00 93 1011.1
20260902134457 69 66 0.0 2.0 0.00 0.00 0.00 94 1011.1
20260902133457 68 52 1.0 5.0 0.00 0.00 0.00 94 1010.9
20260902132958 68 66 0.0 2.0 0.00 0.00 0.00 96 1010.9
20260902132457 68 66 0.0 4.0 0.00 0.00 0.00 96 1010.9
20260902131957 68 78 1.0 7.0 0.00 0.00 0.00 96 1011.0
20260902131457 68 19 0.0 0.0 0.00 0.00 0.00 98 1011.1
20260902130957 68 19 0.0 0.0 0.00 0.00 0.00 99 1011.1
20260902130457 68 19 0.0 5.0 0.00 0.00 0.00 99 1011.0
20260902130038 68 67 0.0 4.0 0.00 0.00 0.00 99 1011.0
20260902125457 67 43 0.0 0.0 0.00 0.00 0.00 99 1010.9
20260902124457 67 4 0.0 4.0 0.00 0.00 0.00 99 1010.9
20260902122958 66 56 0.0 0.0 0.00 0.00 0.00 99 1011.1
20260902122002 66 56 0.0 1.0 0.00 0.00 0.00 99 1010.8
20260902121457 66 56 0.0 3.0 0.00 0.00 0.00 99 1010.7
20260902120957 66 59 0.0 2.0 0.00 0.00 0.00 99 1010.7
20260902115958 66 140 0.0 0.0 0.00 0.00 0.00 99 1010.8
20260902115457 66 140 0.0 0.0 0.00 0.00 0.00 99 1010.9
20260902114957 66 140 0.0 0.0 0.00 0.00 0.00 99 1010.8
20260902114530 66 140 0.0 0.0 0.00 0.00 0.00 99 1010.7
20260902114457 66 140 0.0 0.0 0.00 0.00 0.00 99 1010.7
20260902114032 66 140 0.0 0.0 0.00 0.00 0.00 99 1010.9
20260902113957 66 140 0.0 0.0 0.00 0.00 0.00 99 1010.9
20260902113458 66 140 0.0 0.0 0.00 0.00 0.00 99 1010.8
20260902112957 66 140 0.0 0.0 0.00 0.00 0.00 99 1010.7
20260902112458 66 140 0.0 0.0 0.00 0.00 0.00 99 1010.9
20260902111957 66 140 0.0 0.0 0.00 0.00 0.00 99 1011.0
20260902111535 66 140 0.0 3.0 0.00 0.00 0.00 99 1011.1
20260902111459 66 140 0.0 3.0 0.00 0.00 0.00 99 1011.1
20260902111005 66 164 0.0 0.0 0.00 0.00 0.00 99 1011.6
20260902110457 66 164 0.0 0.0 0.00 0.00 0.00 99 1011.7
20260902105958 66 164 0.0 0.0 0.00 0.00 0.00 99 1011.6
20260902105457 66 164 0.0 0.0 0.00 0.00 0.00 99 1011.6
20260902104957 66 164 0.0 0.0 0.00 0.00 0.00 99 1011.4
20260902104459 66 164 0.0 0.0 0.00 0.00 0.00 99 1011.8
20260902104005 66 164 0.0 0.0 0.00 0.00 0.00 99 1011.7
20260902101957 67 164 0.0 3.0 0.00 0.00 0.00 99 1011.8
20260902101458 67 180 0.0 0.0 0.00 0.00 0.00 98 1011.8
20260902100957 67 180 0.0 0.0 0.00 0.00 0.00 98 1011.8
20260902100457 67 180 0.0 0.0 0.00 0.00 0.00 98 1011.9
20260902095958 67 180 0.0 3.0 0.00 0.00 0.00 98 1011.8
20260902094957 67 149 0.0 0.0 0.00 0.00 0.00 98 1011.6
20260902094456 67 149 0.0 0.0 0.00 0.00 0.00 98 1011.2
20260902093457 67 149 0.0 3.0 0.00 0.00 0.00 98 1010.6
20260902092957 67 82 0.0 2.0 0.00 0.00 0.00 97 1010.5
20260902092457 67 111 0.0 6.0 0.00 0.00 0.00 97 1010.5
20260902091957 67 160 0.0 8.0 0.00 0.00 0.00 97 1010.5
20260902091457 67 143 0.0 0.0 0.00 0.00 0.00 97 1010.3
20260902090957 67 143 0.0 8.0 0.00 0.00 0.00 96 1010.3
20260902090457 67 210 7.0 9.0 0.00 0.00 0.00 96 1010.4
20260902090032 67 140 0.0 8.0 0.00 0.00 0.00 96 1010.0
20260902085958 67 140 0.0 8.0 0.00 0.00 0.00 96 1010.0
20260902085529 67 150 0.0 8.0 0.00 0.00 0.00 96 1010.0
20260902085457 67 150 0.0 8.0 0.00 0.00 0.00 96 1010.0
20260902084957 67 189 7.0 9.0 0.00 0.00 0.00 96 1010.1
20260902084457 67 36 0.0 5.0 0.00 0.00 0.00 96 1009.5
20260902083957 67 9 0.0 4.0 0.00 0.00 0.00 96 1009.1
20260902083457 67 53 3.0 6.0 0.00 0.00 0.00 96 1009.2
20260902082957 67 47 3.0 7.0 0.00 0.00 0.00 96 1009.3
20260902082457 67 67 4.0 7.0 0.00 0.00 0.00 96 1009.4
20260902081957 67 82 0.0 8.0 0.02 0.00 0.00 97 1009.5
20260902081459 67 28 4.0 8.0 0.02 0.00 0.00 98 1009.7
20260902080456 67 25 0.0 5.0 0.02 0.00 0.00 97 1010.3
20260902080038 67 116 0.0 5.0 0.02 0.00 0.00 97 1010.5
20260902075957 67 116 0.0 5.0 0.02 0.00 0.00 97 1010.5
20260902075456 67 37 0.0 6.0 0.00 0.00 0.00 97 1010.4
20260902074956 67 90 3.0 7.0 0.00 0.00 0.00 97 1010.1
20260902073957 67 140 0.0 0.0 0.00 0.00 0.00 96 1010.8
20260902073457 67 140 0.0 0.0 0.00 0.00 0.00 96 1010.9
20260902072956 67 140 0.0 4.0 0.00 0.00 0.00 96 1010.2
20260902072457 68 71 0.0 2.0 0.00 0.00 0.00 95 1009.9
20260902071958 68 91 0.0 5.0 0.00 0.00 0.00 95 1010.1
20260902071457 68 112 0.0 6.0 0.00 0.00 0.00 94 1010.1
20260902070957 69 90 6.0 7.0 0.00 0.00 0.00 94 1010.2
20260902070459 69 80 0.0 8.0 0.00 0.00 0.00 94 1010.3
20260902065957 70 90 0.0 2.0 0.00 0.00 0.00 93 1010.8
20260902065456 70 99 0.0 0.0 0.00 0.00 0.00 92 1011.2
20260902064958 70 99 0.0 5.0 0.00 0.00 0.00 92 1011.7
20260902064458 70 146 3.0 10.0 0.00 0.00 0.00 92 1012.2
20260902063958 71 153 5.0 11.0 0.00 0.00 0.00 92 1012.5
20260902063456 71 175 7.0 11.0 0.00 0.00 0.00 92 1012.8
20260902062958 71 187 6.0 19.0 0.00 0.00 0.00 92 1013.2
20260902062456 71 174 13.0 16.0 0.00 0.00 0.00 92 1013.5
20260902061456 71 341 0.0 0.0 0.00 0.00 0.00 94 1012.6
20260902055957 71 341 0.0 0.0 0.00 0.00 0.00 95 1011.6
20260902054456 72 341 0.0 3.0 0.00 0.00 0.00 96 1010.5
20260902053958 72 330 3.0 3.0 0.00 0.00 0.00 96 1010.3
20260902053456 72 188 0.0 0.0 0.00 0.00 0.00 96 1010.4
20260902053007 72 188 0.0 0.0 0.00 0.00 0.00 96 1010.5
20260902052456 72 188 0.0 0.0 0.00 0.00 0.00 96 1010.6
20260902051956 72 188 0.0 0.0 0.00 0.00 0.00 96 1011.0
20260902051456 72 188 0.0 0.0 0.00 0.00 0.00 96 1011.2
20260902050956 72 188 0.0 0.0 0.00 0.00 0.00 96 1011.2
20260902050649 72 188 0.0 0.0 0.00 0.00 0.00 96 1011.8
20260902050456 72 188 0.0 0.0 0.00 0.00 0.00 96 1011.8
20260902045958 72 188 0.0 4.0 0.00 0.00 0.00 97 1012.1
20260902045456 71 201 0.0 0.0 0.00 0.00 0.00 97 1012.2
20260902044611 71 201 0.0 0.0 0.00 0.00 0.00 95 1011.4
20260902044457 71 201 0.0 0.0 0.00 0.00 0.00 95 1011.4
20260902044150 71 201 0.0 0.0 0.00 0.00 0.00 95 1010.9
20260902044002 71 201 0.0 0.0 0.00 0.00 0.00 95 1010.9
20260902043632 71 201 0.0 0.0 0.00 0.00 0.00 95 1011.0
20260902043456 71 201 0.0 0.0 0.00 0.00 0.00 95 1011.0
20260902042956 71 201 0.0 0.0 0.00 0.00 0.00 95 1010.9
20260902042456 71 201 0.0 0.0 0.00 0.00 0.00 94 1010.8
20260902042133 72 201 0.0 0.0 0.00 0.00 0.00 94 1010.8
20260902041956 72 201 0.0 0.0 0.00 0.00 0.00 94 1010.8
20260902040957 72 201 0.0 0.0 0.00 0.00 0.00 93 1010.5
20260902035957 72 201 0.0 0.0 0.00 0.00 0.00 93 1010.6
20260902034626 72 201 0.0 0.0 0.00 0.00 0.00 92 1010.5
20260902034456 72 201 0.0 0.0 0.00 0.00 0.00 92 1010.5
20260902033956 72 201 0.0 0.0 0.00 0.00 0.00 92 1010.6
20260902033456 72 201 0.0 0.0 0.00 0.00 0.00 91 1010.7
20260902033118 73 201 0.0 0.0 0.00 0.00 0.00 91 1011.0
20260902032956 73 201 0.0 0.0 0.00 0.00 0.00 91 1011.0
20260902032456 73 201 0.0 0.0 0.00 0.00 0.00 91 1011.1
20260902031957 73 201 0.0 0.0 0.00 0.00 0.00 91 1011.2
20260902031456 73 201 0.0 0.0 0.00 0.00 0.00 90 1011.4
20260902030956 73 201 0.0 0.0 0.00 0.00 0.00 89 1011.5
20260902030640 73 201 0.0 0.0 0.00 0.00 0.00 89 1011.5
20260902030457 73 201 0.0 0.0 0.00 0.00 0.00 89 1011.5
20260902030000 73 201 0.0 0.0 0.00 0.00 0.00 89 1011.4
20260902025631 73 201 0.0 0.0 0.00 0.00 0.00 88 1011.4
20260902025456 73 201 0.0 0.0 0.00 0.00 0.00 88 1011.4
20260902024956 73 201 0.0 0.0 0.00 0.00 0.00 87 1011.2
20260902024116 74 201 0.0 0.0 0.00 0.00 0.00 87 1011.1
20260902023956 74 201 0.0 0.0 0.00 0.00 0.00 87 1011.1
20260902023456 74 201 0.0 0.0 0.00 0.00 0.00 86 1011.1
20260902023109 74 201 0.0 0.0 0.00 0.00 0.00 86 1011.0
20260902022957 74 201 0.0 0.0 0.00 0.00 0.00 86 1011.0
20260902022058 75 201 0.0 0.0 0.00 0.00 0.00 85 1011.1
20260902021957 75 201 0.0 0.0 0.00 0.00 0.00 85 1011.1
20260902021030 75 201 0.0 0.0 0.00 0.00 0.00 84 1011.1
20260902020956 75 201 0.0 0.0 0.00 0.00 0.00 84 1011.1
20260902020457 75 201 0.0 0.0 0.00 0.00 0.00 84 1011.1
20260902015958 75 201 0.0 0.0 0.00 0.00 0.00 83 1011.1
20260902015501 75 201 0.0 0.0 0.00 0.00 0.00 83 1011.1
20260902015000 76 201 0.0 0.0 0.00 0.00 0.00 82 1011.1
20260902014456 76 201 0.0 0.0 0.00 0.00 0.00 81 1011.0
20260902013956 76 201 0.0 0.0 0.00 0.00 0.00 80 1010.9
20260902013456 77 201 0.0 0.0 0.00 0.00 0.00 80 1010.8
20260902012956 77 201 0.0 0.0 0.00 0.00 0.00 80 1010.8
20260902012456 77 201 0.0 0.0 0.00 0.00 0.00 80 1010.9
20260902012028 77 201 0.0 0.0 0.00 0.00 0.00 78 1010.8
20260902011956 77 201 0.0 0.0 0.00 0.00 0.00 78 1010.8
20260902011457 78 201 0.0 0.0 0.00 0.00 0.00 77 1010.8
20260902010956 78 201 0.0 0.0 0.00 0.00 0.00 76 1010.9
20260902010456 78 201 0.0 0.0 0.00 0.00 0.00 75 1010.8
20260902005957 79 201 0.0 0.0 0.00 0.00 0.00 74 1010.7
20260902005503 79 201 0.0 0.0 0.00 0.00 0.00 73 1010.6
20260902004631 80 201 0.0 0.0 0.00 0.00 0.00 72 1010.7
20260902004456 80 201 0.0 0.0 0.00 0.00 0.00 72 1010.7
20260902003956 80 201 0.0 0.0 0.00 0.00 0.00 72 1010.6
20260902003458 80 201 0.0 0.0 0.00 0.00 0.00 72 1010.7
20260902002456 80 201 0.0 0.0 0.00 0.00 0.00 70 1010.7
20260902001956 81 201 0.0 0.0 0.00 0.00 0.00 70 1010.7
20260902001456 81 201 0.0 0.0 0.00 0.00 0.00 70 1010.7
20260902000957 81 201 0.0 0.0 0.00 0.00 0.00 69 1010.8
20260901235456 81 260 0.0 3.0 0.00 0.00 0.00 68 1010.9
20260901234959 81 282 0.0 0.0 0.00 0.00 0.00 68 1011.0
20260901234456 81 282 0.0 0.0 0.00 0.00 0.00 67 1011.0
20260901233457 82 282 0.0 4.0 0.00 0.00 0.00 66 1011.1
20260901232956 82 267 0.0 0.0 0.00 0.00 0.00 66 1011.1
20260901232456 82 267 0.0 0.0 0.00 0.00 0.00 65 1011.0
20260901231956 82 267 0.0 0.0 0.00 0.00 0.00 65 1011.0
20260901231534 82 267 0.0 0.0 0.00 0.00 0.00 64 1011.0
20260901231457 82 267 0.0 0.0 0.00 0.00 0.00 64 1011.0
20260901230957 82 267 0.0 0.0 0.00 0.00 0.00 64 1011.0
20260901230456 82 267 0.0 0.0 0.00 0.00 0.00 64 1011.0
20260901225958 82 267 0.0 0.0 0.00 0.00 0.00 63 1010.9
20260901225458 82 267 0.0 0.0 0.00 0.00 0.00 63 1011.0
20260901224956 82 267 0.0 4.0 0.00 0.00 0.00 62 1010.9
20260901224458 82 305 0.0 0.0 0.00 0.00 0.00 62 1011.1
20260901223959 83 305 0.0 0.0 0.00 0.00 0.00 61 1011.0
20260901223457 83 305 0.0 0.0 0.00 0.00 0.00 60 1010.9
20260901223001 83 305 0.0 2.0 0.00 0.00 0.00 60 1010.9
20260901222457 83 289 0.0 3.0 0.00 0.00 0.00 59 1011.1
20260901221957 83 281 0.0 0.0 0.00 0.00 0.00 59 1011.0
20260901221457 83 281 0.0 0.0 0.00 0.00 0.00 59 1011.0
20260901220956 83 281 0.0 3.0 0.00 0.00 0.00 59 1011.1
20260901215500 83 225 0.0 5.0 0.00 0.00 0.00 59 1010.9
20260901215021 83 239 0.0 5.0 0.00 0.00 0.00 59 1011.0
20260901213459 83 158 2.0 4.0 0.00 0.00 0.00 60 1011.0
20260901213001 83 264 0.0 5.0 0.00 0.00 0.00 60 1011.0
20260901211500 83 237 5.0 5.0 0.00 0.00 0.00 60 1011.0
20260901210000 83 232 0.0 5.0 0.00 0.00 0.00 58 1011.0
20260901205456 83 187 2.0 5.0 0.00 0.00 0.00 59 1010.8
20260901204958 83 223 0.0 0.0 0.00 0.00 0.00 58 1010.9